Location: Bienso
(13.2696°N, 4.9750°W)
Time: 06:48:41
(UTC+00:00)

Daily predictions for brighter satellites

Satellite Brightness Start Highest point End
(mag) Time Altitude Azimuth Time Altitude Azimuth Time Altitude Azimuth
ARIANE 5 R/B 4.4 17:52:20 10° SW 17:56:10 40° SSE 18:15:18 10° E
Centaur AC-64 4.4 18:10:17 10° NW 18:14:31 51° NNE 18:36:46 10° E
Cosmos 1340 Rocket 3.8 18:33:06 10° NNE 18:36:25 25° E 18:39:44 10° SE
Cosmos 2333 Rocket 3.0 18:33:02 10° NNE 18:37:55 29° ENE 18:42:45 10° SE
FengYun 1-2 T 4.3 18:33:45 10° SSE 18:39:10 57° ENE 18:44:38 10° N
Cosmos 2218 Rocket 4.4 18:37:07 10° SSE 18:42:57 43° E 18:48:49 10° NNE
CSL-04 Rocket 4.4 18:40:04 10° SE 18:44:44 30° ENE 18:49:26 10° NNE
Cosmos 1300 2.6 18:42:26 10° N 18:46:13 68° E 18:49:59 10° S
Cosmos 2219 4.5 18:42:15 10° SW 18:47:32 42° WNW 18:52:49 10° N
Cosmos 1048 Rocket 4.3 18:46:23 10° N 18:51:09 40° ENE 18:55:56 10° SE
GPS 2-18 Rocket1 4.5 18:48:50 10° NW 18:51:58 25° N 18:54:36 13° NE
Cosmos 2082 3.7 18:47:05 10° S 18:52:35 60° ESE 18:58:05 10° NNE
ISS -1.1 18:51:17 10° W 18:53:33 17° NW 18:55:47 10° N
CZ-4 R/B 1.3 18:51:48 10° SSE 18:55:38 60° ENE 18:59:32 10° N
Cosmos 468 4.5 18:54:52 10° N 19:00:00 62° ENE 19:05:10 10° SSE
CCE 1 Rocket 3.8 18:58:56 10° SW 19:03:36 55° SSE 19:06:05 20° E
YAOGAN 1 2.6 19:00:13 10° SSE 19:04:28 58° ENE 19:08:42 10° N
YAOGAN 6 4.1 19:01:18 10° S 19:04:47 41° W 19:08:17 10° NNW
SWIFT 2.3 19:01:03 10° WSW 19:05:16 87° NNW 19:08:01 21° ENE
Cosmos 2297 Rocket 3.4 19:00:47 10° SW 19:06:06 43° WNW 19:11:26 10° N
Cosmos 1174 4.3 19:02:35 10° NNW 19:06:24 69° WSW 19:11:11 10° SSE
GPS 2-04 Rocket1 2.8 19:02:32 10° WNW 19:06:37 77° SW 19:10:29 10° SE
OAO 3 Rocket 4.3 19:03:16 10° SSW 19:07:13 27° SE 19:09:39 18° E
Ariane Rocket 4.1 19:05:56 10° ESE 19:09:35 20° ENE 19:10:20 20° ENE
Cosmos 2333 4.4 19:05:55 10° NNW 19:11:33 77° WSW 19:17:08 10° S
ATLAS 3B CENTAUR R/B 3.8 19:12:05 10° SSW 19:12:44 11° SSW 19:13:27 10° S
Cosmos 2322 4.3 19:07:49 10° NNW 19:13:22 61° WSW 19:18:57 10° S
Cosmos 1703 3.1 19:10:16 10° S 19:14:11 77° E 19:18:06 10° N
Cosmos 1812 Rocket 4.1 19:10:20 10° NNW 19:14:44 63° W 19:19:09 10° S
Meteor 2-1 Rocket 4.1 19:09:17 10° N 19:14:47 78° E 19:20:24 10° S
Cosmos 1959 Rocket 4.5 19:08:36 10° S 19:14:52 88° E 19:21:04 10° N
FALCON 9 R/B 4.2 18:46:28 10° WSW 19:16:15 67° NW 19:22:14 18° NE
Cosmos 2227 Rocket 3.6 19:12:41 10° SW 19:17:52 37° WNW 19:23:03 10° N
NOAA 11 4.1 19:13:06 10° SSE 19:18:35 72° ENE 19:24:02 10° N
Cosmos 2366 rocket 4.0 19:16:36 10° S 19:22:44 82° W 19:28:55 10° N
Atlas Centaur 2 3.1 19:20:06 10° W 19:24:51 36° NNW 19:28:24 20° NNE
ADEOS Rocket 3.6 19:18:47 10° N 19:25:45 77° WNW 19:33:21 10° SSW
Cosmos 2263 Rocket 3.9 19:24:07 10° SE 19:25:56 15° ESE 19:25:56 15° ESE
CZ-4C R/B 3.5 19:23:49 10° N 19:31:11 37° ENE 19:38:48 10° SE
Hubble Space Telescope 2.5 19:28:39 10° W 19:32:19 31° SSW 19:35:53 11° SSE
COSMOS 2428 2.8 19:27:26 10° NNW 19:33:09 79° WSW 19:38:51 10° SSE
OAO 2 Rocket 3.8 19:28:47 10° SW 19:33:27 44° SE 19:34:42 36° ESE
Cosmos 494 Rocket 3.9 19:28:42 10° N 19:33:44 61° ENE 19:38:47 10° SSE
Cosmos 2219 Rocket 2.6 19:33:12 10° NNW 19:38:46 65° WSW 19:44:20 10° S
Cosmos-2242 2.8 19:35:45 10° N 19:40:02 83° E 19:44:17 10° S
Cosmos 44 Rocket 3.7 19:38:29 10° S 19:42:54 41° ESE 19:42:54 41° ESE
CZ-2D R/B 4.4 19:42:57 10° S 19:46:32 42° W 19:50:09 10° NNW
Centaur D-1AR AC-36 1.3 19:45:27 10° WNW 19:49:32 73° N 19:49:32 73° N
Delta 7925 Rocket 4.1 19:45:55 10° WNW 19:52:40 47° NNE 19:53:14 46° NNE
USA 234 4.4 19:48:10 10° SSE 19:54:18 43° SW 20:00:26 10° NW
SYLDA PLATFORM 4.4 19:49:09 10° WSW 19:54:42 41° S 19:55:15 38° SSE
H-2A R/B 2.8 19:57:02 10° NW 20:00:44 53° NE 20:01:49 48° ENE
Cosmos 1461 3.5 19:57:38 10° NNW 20:02:06 62° WSW 20:06:41 10° SSE
Cosmos 1727 Rocket 3.8 20:04:19 63° NE 20:05:02 69° E 20:11:10 10° S
USA 238 DEB 3.8 20:01:53 10° S 20:07:48 52° SE 20:07:48 52° SE
USA 238 3.8 20:02:02 10° S 20:07:52 51° SE 20:07:52 51° SE
Cosmos 2227 4.5 20:19:00 10° SSW 20:23:51 64° SW 20:23:51 64° SW
Cosmos 2237 Rocket 4.0 20:20:51 10° NNW 20:33:13 - S 20:22:20 19° NNW
USA 215 3.4 20:40:50 66° W 20:40:50 66° W 20:46:47 10° SW
Cosmos 2263 Rocket 4.4 21:05:57 10° SW 21:07:42 19° SW 21:07:42 19° SW
Ariane H10+ 4.3 21:08:43 10° SW 21:12:28 35° SSW 21:12:28 35° SSW
CZ-4C R/B 4.3 21:12:22 10° NW 21:19:43 36° WSW 21:27:11 10° S
H-2A R/B 4.3 13:07:57 10° WSW 21:31:48 68° WNW 21:31:48 68° WNW
